UAE6108 OEJN-OMDB

Flight info

Callsign UAE6108
Flight time N/A
Altitude 39000
Route EGREP T532 KODIS Y214 RAPMA DCT KUVSO DCT RIBOT M550 GOLGU M318 ATUDO/N0464F350 M318 RURAL Q317 LORID
Aircraft B77L/H-SDE1E2E3FGHIJ2J3J4J5M1RWXY/LB1D1

Departure

Time 2025-10-27 20:31
Airport King Abdulaziz International Airport (OEJN)

Arrival

Time N/A
Airport Dubai International Airport (OMDB)
Time Latitude Longitude Altitude Speed Heading
2025-10-27 20:12 21.66606 39.17284 37 ft 0 kts 253°
2025-10-27 20:23 21.66616 39.17320 39 ft 3 kts 253°
2025-10-27 20:23 21.66622 39.17340 38 ft 4 kts 248°
2025-10-27 20:24 21.66645 39.17374 35 ft 3 kts 214°
2025-10-27 20:24 21.66647 39.17375 35 ft 0 kts 212°
2025-10-27 20:27 21.66626 39.17376 37 ft 9 kts 174°
2025-10-27 20:27 21.66503 39.17455 41 ft 12 kts 121°
2025-10-27 20:28 21.66513 39.17598 41 ft 10 kts 69°
2025-10-27 20:28 21.66592 39.17825 41 ft 14 kts 68°
2025-10-27 20:29 21.66673 39.18016 42 ft 9 kts 39°
2025-10-27 20:29 21.67126 39.17858 39 ft 115 kts 340°
2025-10-27 20:30 21.69553 39.16928 1451 ft 215 kts 340°
2025-10-27 20:30 21.71001 39.16338 2509 ft 231 kts 344°
2025-10-27 20:31 21.74245 39.16026 4351 ft 240 kts
2025-10-27 20:31 21.77473 39.17800 5595 ft 280 kts 37°
2025-10-27 20:32 21.80676 39.20303 7707 ft 287 kts 37°
2025-10-27 20:33 21.85625 39.24153 10684 ft 308 kts 37°
2025-10-27 20:33 21.89443 39.27112 11368 ft 365 kts 37°
2025-10-27 20:34 21.93689 39.30388 13156 ft 383 kts 36°
2025-10-27 20:34 21.95932 39.31991 14114 ft 390 kts 33°
2025-10-27 20:34 22.00633 39.35057 15922 ft 400 kts 31°
2025-10-27 20:35 22.05473 39.38200 17635 ft 412 kts 31°
2025-10-27 20:35 22.10427 39.41466 19156 ft 423 kts 31°
2025-10-27 20:36 22.15478 39.44817 20631 ft 430 kts 30°
2025-10-27 20:37 22.23232 39.49964 22776 ft 443 kts 30°
2025-10-27 20:37 22.28527 39.53477 24030 ft 451 kts 29°
2025-10-27 20:38 22.33411 39.57757 24957 ft 467 kts 53°
2025-10-27 20:38 22.38118 39.67141 26433 ft 481 kts 58°
2025-10-27 20:41 22.56559 39.93220 30819 ft 499 kts 34°
2025-10-27 20:42 22.74955 40.10681 34296 ft 501 kts 35°
2025-10-27 20:45 22.98288 40.33095 37996 ft 495 kts 36°
2025-10-27 20:46 23.16349 40.50518 39126 ft 494 kts 36°
2025-10-27 20:49 23.33660 40.78153 39122 ft 513 kts 66°
2025-10-27 20:50 23.42326 41.03459 39107 ft 514 kts 65°
2025-10-27 20:52 23.53213 41.35089 39117 ft 515 kts 65°
2025-10-27 20:54 23.63207 41.64344 39082 ft 514 kts 66°
2025-10-27 20:57 23.73934 41.97427 39073 ft 514 kts 68°
2025-10-27 20:58 23.82577 42.22846 39060 ft 513 kts 66°
2025-10-27 21:00 23.92508 42.52147 39067 ft 515 kts 66°
2025-10-27 21:02 24.02401 42.81537 39079 ft 515 kts 67°
2025-10-27 21:05 23.97493 43.15641 39087 ft 521 kts 107°
2025-10-27 21:06 23.90253 43.42227 39086 ft 522 kts 107°
2025-10-27 21:09 23.80887 43.76296 39096 ft 519 kts 108°
2025-10-27 21:10 23.76280 44.03093 39095 ft 519 kts 94°
2025-10-27 21:13 23.73672 44.38465 39094 ft 520 kts 95°
2025-10-27 21:14 23.71843 44.62066 39091 ft 521 kts 96°
2025-10-27 21:17 23.68718 45.01297 39094 ft 523 kts 96°
2025-10-27 21:18 23.66779 45.24996 39100 ft 523 kts 97°
2025-10-27 21:21 23.63485 45.64428 39074 ft 521 kts 97°
2025-10-27 21:23 23.60788 45.95937 39067 ft 523 kts 97°
2025-10-27 21:25 23.58035 46.27386 39060 ft 526 kts 98°
2025-10-27 21:27 23.55192 46.59066 39041 ft 524 kts 98°